When you browse on this site, cookies collect data to enhance your experience and personalize the content and advertising you see.
Visit our Privacy Policy to learn more. By continuing to use the site, you agree to this use of cookies and data.
  • Em Portugal
  • Lista de países
  • Para 7 dias
  • Temperatura da água
  • Mapa do tempo
  • Widgets de tempo
  • user-avatar
    Iniciar Sessão

    Previsão horária em Barisal

    Hoje, 5 Junho, Sexta-feira

    Tempo Temperatura Precipitação Vento Pressão Humidade
    00:00 +31°C° 0 mm 3 m/s 754 mmHg 80%
    01:00 +31°C° 0 mm 3 m/s 753 mmHg 82%
    02:00 +30°C° 0 mm 3 m/s 753 mmHg 83%
    03:00 +30°C° 0 mm 2 m/s 752 mmHg 84%
    04:00 +30°C° 0 mm 2 m/s 752 mmHg 85%
    05:00 +30°C° 0 mm 3 m/s 753 mmHg 85%
    06:00 +30°C° 0 mm 3 m/s 753 mmHg 85%
    07:00 +33°C° 0 mm 3 m/s 753 mmHg 77%
    08:00 +34°C° 0 mm 3 m/s 753 mmHg 68%
    09:00 +36°C° 0 mm 4 m/s 753 mmHg 60%
    10:00 +36°C° 0.2 mm 4 m/s 753 mmHg 58%
    11:00 +37°C° 0.2 mm 5 m/s 753 mmHg 56%
    12:00 +37°C° 0.2 mm 5 m/s 753 mmHg 53%
    13:00 +39°C° 0.1 mm 6 m/s 752 mmHg 52%
    14:00 +39°C° 0.1 mm 6 m/s 752 mmHg 51%
    15:00 +39°C° 0.1 mm 6 m/s 751 mmHg 50%
    16:00 +38°C° 0 mm 6 m/s 751 mmHg 54%
    17:00 +36°C° 0 mm 6 m/s 751 mmHg 59%
    18:00 +35°C° 0 mm 6 m/s 751 mmHg 63%
    19:00 +34°C° 0 mm 5 m/s 751 mmHg 67%
    20:00 +33°C° 0 mm 5 m/s 751 mmHg 71%
    21:00 +33°C° 0 mm 5 m/s 752 mmHg 75%
    22:00 +33°C° 0 mm 5 m/s 752 mmHg 76%
    23:00 +32°C° 0 mm 4 m/s 752 mmHg 77%

    Amanhã, 6 Junho, Sábado

    Tempo Temperatura Precipitação Vento Pressão Humidade
    00:00 +32°C° 0 mm 4 m/s 752 mmHg 78%
    01:00 +32°C° 0.1 mm 4 m/s 751 mmHg 79%
    02:00 +32°C° 0.1 mm 4 m/s 751 mmHg 80%
    03:00 +31°C° 0.1 mm 3 m/s 751 mmHg 81%
    04:00 +31°C° 0.7 mm 3 m/s 751 mmHg 80%
    05:00 +31°C° 0.7 mm 3 m/s 751 mmHg 80%
    06:00 +31°C° 0.7 mm 3 m/s 751 mmHg 79%
    07:00 +34°C° 0 mm 4 m/s 751 mmHg 70%
    08:00 +35°C° 0 mm 4 m/s 751 mmHg 62%
    09:00 +37°C° 0 mm 4 m/s 752 mmHg 53%
    10:00 +39°C° 0 mm 5 m/s 752 mmHg 49%
    11:00 +40°C° 0 mm 5 m/s 751 mmHg 45%
    12:00 +42°C° 0 mm 5 m/s 751 mmHg 41%
    13:00 +41°C° 0 mm 5 m/s 750 mmHg 43%
    14:00 +41°C° 0 mm 6 m/s 750 mmHg 45%
    15:00 +40°C° 0 mm 6 m/s 749 mmHg 46%
    16:00 +39°C° 0 mm 6 m/s 749 mmHg 51%
    17:00 +38°C° 0 mm 6 m/s 749 mmHg 55%
    18:00 +36°C° 0 mm 7 m/s 749 mmHg 59%
    19:00 +35°C° 0 mm 6 m/s 749 mmHg 63%
    20:00 +34°C° 0 mm 6 m/s 750 mmHg 68%
    21:00 +34°C° 0 mm 5 m/s 751 mmHg 72%
    22:00 +33°C° 0 mm 5 m/s 751 mmHg 74%
    23:00 +33°C° 0 mm 4 m/s 751 mmHg 75%

    Depois de amanhã, 7 Junho, Domingo

    Tempo Temperatura Precipitação Vento Pressão Humidade
    00:00 +33°C° 0 mm 3 m/s 751 mmHg 76%
    01:00 +33°C° 0.7 mm 3 m/s 750 mmHg 77%
    02:00 +31°C° 0.7 mm 3 m/s 750 mmHg 77%
    03:00 +31°C° 0.7 mm 3 m/s 750 mmHg 78%
    04:00 +31°C° 0 mm 2 m/s 750 mmHg 78%
    05:00 +31°C° 0 mm 2 m/s 750 mmHg 78%
    06:00 +31°C° 0 mm 2 m/s 751 mmHg 78%
    07:00 +34°C° 0 mm 2 m/s 751 mmHg 67%
    08:00 +36°C° 0 mm 3 m/s 751 mmHg 55%
    09:00 +38°C° 0 mm 3 m/s 751 mmHg 44%
    10:00 +40°C° 0 mm 4 m/s 751 mmHg 41%
    11:00 +41°C° 0 mm 4 m/s 751 mmHg 38%
    12:00 +42°C° 0 mm 4 m/s 751 mmHg 35%
    13:00 +42°C° 0 mm 5 m/s 750 mmHg 36%
    14:00 +41°C° 0 mm 5 m/s 749 mmHg 37%
    15:00 +41°C° 0 mm 6 m/s 748 mmHg 39%
    16:00 +40°C° 0 mm 6 m/s 748 mmHg 43%
    17:00 +39°C° 0 mm 6 m/s 748 mmHg 47%
    18:00 +36°C° 0 mm 6 m/s 748 mmHg 51%
    19:00 +36°C° 0 mm 5 m/s 749 mmHg 56%
    20:00 +35°C° 0 mm 5 m/s 749 mmHg 61%
    21:00 +34°C° 0 mm 5 m/s 750 mmHg 66%
    22:00 +34°C° 0 mm 5 m/s 750 mmHg 68%
    23:00 +33°C° 0 mm 5 m/s 750 mmHg 70%

    8 Junho, Segunda-feira

    Tempo Temperatura Precipitação Vento Pressão Humidade
    00:00 +33°C° 0 mm 5 m/s 750 mmHg 72%
    01:00 +33°C° 0 mm 4 m/s 750 mmHg 74%
    02:00 +33°C° 0 mm 4 m/s 750 mmHg 76%
    03:00 +31°C° 0 mm 3 m/s 749 mmHg 79%
    04:00 +31°C° 0.3 mm 3 m/s 749 mmHg 80%
    05:00 +31°C° 0.3 mm 3 m/s 750 mmHg 81%
    06:00 +31°C° 0.3 mm 3 m/s 750 mmHg 82%
    07:00 +34°C° 0 mm 3 m/s 750 mmHg 71%
    08:00 +36°C° 0 mm 4 m/s 751 mmHg 60%
    09:00 +38°C° 0 mm 4 m/s 751 mmHg 49%
    10:00 +40°C° 0 mm 4 m/s 750 mmHg 45%
    11:00 +41°C° 0 mm 5 m/s 750 mmHg 42%
    12:00 +42°C° 0 mm 5 m/s 749 mmHg 39%
    13:00 +41°C° 0 mm 5 m/s 749 mmHg 41%
    14:00 +41°C° 0 mm 6 m/s 749 mmHg 42%
    15:00 +41°C° 0 mm 6 m/s 748 mmHg 44%
    16:00 +39°C° 0 mm 6 m/s 748 mmHg 48%
    17:00 +38°C° 0 mm 6 m/s 748 mmHg 53%
    18:00 +36°C° 0 mm 6 m/s 748 mmHg 58%
    19:00 +35°C° 0 mm 5 m/s 749 mmHg 62%
    20:00 +34°C° 0 mm 5 m/s 749 mmHg 67%
    21:00 +33°C° 0 mm 4 m/s 750 mmHg 71%
    22:00 +33°C° 0 mm 4 m/s 750 mmHg 73%
    23:00 +33°C° 0 mm 4 m/s 750 mmHg 74%

    9 Junho, Terça-feira

    Tempo Temperatura Precipitação Vento Pressão Humidade
    00:00 +33°C° 0 mm 3 m/s 750 mmHg 76%
    01:00 +31°C° 0 mm 3 m/s 750 mmHg 77%
    02:00 +31°C° 0 mm 3 m/s 749 mmHg 79%
    03:00 +31°C° 0 mm 3 m/s 749 mmHg 80%
    04:00 +31°C° 0 mm 3 m/s 749 mmHg 80%
    05:00 +31°C° 0 mm 3 m/s 750 mmHg 80%
    06:00 +31°C° 0 mm 3 m/s 750 mmHg 80%
    07:00 +34°C° 0 mm 4 m/s 750 mmHg 71%
    08:00 +35°C° 0 mm 4 m/s 751 mmHg 62%
    09:00 +37°C° 0 mm 5 m/s 751 mmHg 52%
    10:00 +38°C° 0 mm 4 m/s 751 mmHg 50%
    11:00 +40°C° 0 mm 4 m/s 750 mmHg 47%
    12:00 +40°C° 0 mm 4 m/s 750 mmHg 44%
    13:00 +40°C° 0 mm 5 m/s 749 mmHg 46%
    14:00 +40°C° 0 mm 5 m/s 749 mmHg 47%
    15:00 +40°C° 0 mm 5 m/s 748 mmHg 48%
    16:00 +39°C° 0 mm 5 m/s 748 mmHg 52%
    17:00 +37°C° 0 mm 5 m/s 748 mmHg 56%
    18:00 +35°C° 0 mm 5 m/s 748 mmHg 60%
    19:00 +35°C° 0 mm 5 m/s 749 mmHg 64%
    20:00 +34°C° 0 mm 4 m/s 749 mmHg 68%
    21:00 +33°C° 0 mm 4 m/s 750 mmHg 73%
    22:00 +33°C° 0 mm 4 m/s 750 mmHg 73%
    23:00 +33°C° 0 mm 3 m/s 750 mmHg 74%

    10 Junho, Quarta-feira

    Tempo Temperatura Precipitação Vento Pressão Humidade
    00:00 +33°C° 0 mm 3 m/s 750 mmHg 74%
    01:00 +33°C° 0 mm 4 m/s 750 mmHg 76%
    02:00 +33°C° 0 mm 4 m/s 750 mmHg 77%
    03:00 +32°C° 0 mm 4 m/s 749 mmHg 78%
    04:00 +32°C° 0 mm 4 m/s 750 mmHg 78%
    05:00 +32°C° 0 mm 4 m/s 750 mmHg 78%
    06:00 +32°C° 0 mm 5 m/s 750 mmHg 78%
    07:00 +33°C° 0 mm 5 m/s 750 mmHg 73%
    08:00 +35°C° 0 mm 6 m/s 751 mmHg 67%
    09:00 +36°C° 0 mm 7 m/s 751 mmHg 62%
    10:00 +36°C° 0 mm 7 m/s 751 mmHg 60%
    11:00 +38°C° 0 mm 7 m/s 751 mmHg 58%
    12:00 +39°C° 0 mm 7 m/s 750 mmHg 56%
    13:00 +38°C° 0 mm 7 m/s 750 mmHg 55%
    14:00 +38°C° 0 mm 7 m/s 749 mmHg 55%
    15:00 +38°C° 0 mm 7 m/s 749 mmHg 55%
    16:00 +38°C° 0 mm 7 m/s 749 mmHg 58%
    17:00 +36°C° 0 mm 6 m/s 749 mmHg 60%
    18:00 +35°C° 0 mm 6 m/s 749 mmHg 63%
    19:00 +34°C° 0 mm 6 m/s 749 mmHg 67%
    20:00 +34°C° 0 mm 5 m/s 750 mmHg 70%
    21:00 +33°C° 0 mm 5 m/s 750 mmHg 74%
    22:00 +33°C° 0 mm 5 m/s 750 mmHg 74%
    23:00 +33°C° 0 mm 5 m/s 750 mmHg 75%
    Mostrar mais